Weather in Česká Skalice

Czech Republic     50°23′40″N   16°02′32″E
temp.,
°C
wind,
m/s
gust,
m/s
humid.,
%
clouds,
%
prec.,
mm/h
press.,
hPa
HPBL,
m
26 july, mon
mon2623:00+17nne1191100 2.6 101112
02:00+16ssw1196100 4.2 101111
05:00+16sw1199100 2.9 101122
08:00+18sw239348 3.2 1012278
11:00+23sw3468100 0.0 1013834
14:00+26sw455398 0.5 10121519
17:00+27sw23478 0.0 10111840
20:00+18w61089100 3.8 1011312
27 july, tue
tue2723:00+16nne1194100 21.4 101323
02:00+15w11966 21.4 101414
05:00+14sse119824 0.0 101412
08:00+17s229296 0.0 1015227
11:00+21sw3472100 0.0 1015716
14:00+24sw455942 0.0 10151185
17:00+25sw3454100 0.0 10141218
20:00+21wnw0171100 0.0 101311
28 july, wed
wed2823:00+17n228369 0.7 101413
02:00+17nne2287100 1.1 101318
05:00+17nne2291100 0.9 101325
08:00+17wsw1191100 1.3 101427
11:00+22wsw0171100 1.0 1013393
14:00+24sw2461100 1.5 10131009
17:00+21wnw587475 0.9 1013582
20:00+17sw338930 1.4 101484
29 july, thu
thu2923:00+13wsw22941 0.0 101628
02:00+12s12975 0.0 101620
05:00+12s119941 0.0 101622
08:00+14ssw249380 0.0 1016287
11:00+19wsw477255 0.0 10151089
14:00+24wsw594919 0.0 10142122
17:00+25sw59485 0.0 10122241
20:00+21wsw37670 0.0 1012178
30 july, fri
fri3023:00+16sse017619 0.0 101211
02:00+17se017328 0.0 101211
05:00+15s1188100 0.0 101211
08:00+17s2383100 0.0 1012212
11:00+21sw4563100 0.0 1011802
14:00+24wsw4653100 0.0 10101453
17:00+24wsw355237 0.0 10091581
20:00+21ssw237078 0.0 100842